User: anonymous   Login
Location: *
(45.5667°S, 177.5167°W)
Time: 19:52:25
(UTC+00:00)
Language:

Lacrosse 5 rocket - Orbit

View from above orbital plane
View from above orbital plane
View from above satellite
View from above satellite

Ground track
Ground track

The orbit data is extracted from the following two-line orbital elements,

1 28647U 05016B   22229.51543367  .00001841  00000-0  11660-3 0  9991
2 28647  56.9946 260.1781 0123954 130.7232 230.4651 15.08116917179181
Epoch (UTC): 17 August 2022 12:22:13
Eccentricity: 0.0123954
inclination: 56.9946°
perigee height: 456 km
apogee height: 628 km
right ascension of ascending node: 260.1781°
argument of perigee: 130.7232°
revolutions per day: 15.08116917
mean anomaly at epoch: 230.4651°
orbit number at epoch: 17918

The dashed part of the orbit path shows where the satellite is in the earth's shadow,  

DLR